Lid_Strength_Index
9 14 17 15 14 15 16 18 18 16 14 15 14 13 11 10 12 13 13 12 12 11 9 9 7 5 4 4 4 3 3 2 2 3 3 3 3 2 2 2 2 2 2 2
11 15 15 13 12 13 15 16 18 17 15 15 16 16 13 12 11 10 11 12 11 10 11 10 10 10 7 5 4 3 3 2 2 2 2 3 3 3 2 2 2 2 1 2
14 12 10 12 14 14 15 17 17 17 15 16 17 18 16 14 12 11 10 9 10 10 9 9 10 10 11 9 5 3 2 2 2 2 3 4 3 4 2 2 2 2 1 1
12 10 10 11 14 14 16 14 14 15 16 20 17 22 19 16 15 14 12 11 10 11 10 9 10 10 10 9 8 4 2 2 1 2 2 3 2 3 3 3 2 2 2 1
13 12 12 12 12 11 15 11 12 14 16 17 19 21 21 19 18 17 15 13 12 10 9 10 10 10 10 10 9 7 5 4 3 2 2 3 3 3 4 4 3 3 3 2
10 9 10 11 10 9 11 13 13 14 16 21 20 20 22 19 18 17 16 15 13 12 13 13 13 12 11 10 9 8 7 6 6 5 4 4 4 4 5 5 5 4 3 3
12 12 11 11 13 10 11 15 19 20 22 24 21 20 20 18 17 16 15 15 15 15 15 15 14 13 11 9 8 7 7 7 6 6 6 6 6 7 7 6 4 4 6 6
16 18 12 11 13 14 12 13 18 22 22 22 18 22 21 17 15 14 14 14 14 14 14 14 14 12 9 7 7 7 7 8 7 7 8 8 7 6 6 5 5 5 7 7
16 16 10 10 10 11 14 15 13 16 19 20 20 20 17 16 15 14 14 13 12 12 13 11 10 9 8 8 8 8 8 9 9 9 9 10 10 9 9 9 9 9 9 9
12 16 11 10 9 10 12 12 16 16 25 25 20 21 21 18 16 15 14 13 12 12 11 10 9 9 9 10 10 9 9 10 11 11 11 11 11 11 11 11 11 11 10 9
11 13 14 11 13 13 12 14 14 15 18 22 24 21 17 16 15 15 14 13 12 11 10 9 9 10 10 11 11 11 12 12 12 12 12 12 13 12 12 12 12 12 11 11
11 13 16 14 11 9 10 12 12 16 18 18 18 20 15 15 15 14 13 12 12 12 10 10 10 11 11 12 12 12 13 13 13 14 14 14 14 14 14 14 14 13 13 12
11 13 17 16 13 11 13 11 11 12 14 17 20 19 14 14 15 13 12 11 11 11 12 12 12 12 12 13 13 13 14 14 14 14 15 15 15 15 15 15 15 14 14 14
9 12 16 18 16 14 15 14 12 13 17 16 16 16 16 15 15 14 13 13 11 11 11 11 12 12 12 13 13 14 14 15 15 15 16 16 16 16 16 16 16 15 15 15
10 16 14 13 12 13 14 14 14 14 14 16 14 14 13 13 13 12 12 12 12 11 10 11 11 11 12 13 14 14 14 15 15 16 16 16 16 17 16 16 16 16 16 16
9 14 14 16 13 12 15 14 14 14 14 13 13 13 9 11 12 12 12 12 11 11 10 10 10 11 11 12 12 13 14 15 16 17 17 17 17 17 16 17 17 17 17 17
12 15 17 20 14 14 22 17 14 14 14 13 15 12 9 10 10 10 10 11 10 10 10 10 10 10 10 11 12 13 14 15 16 16 17 17 17 17 17 18 18 18 19 18
13 15 15 21 17 24 16 14 13 13 13 12 11 11 10 10 9 9 8 9 9 9 9 8 7 10 10 11 13 14 15 15 16 16 16 17 17 18 18 18 18 19 18 18
10 12 17 23 22 19 16 15 14 14 14 11 11 11 11 11 11 11 9 8 8 7 7 8 8 8 10 12 13 14 15 15 16 16 17 17 17 17 18 18 18 18 18 18
10 10 13 25 25 27 18 15 12 11 17 12 11 11 12 11 14 13 11 11 11 10 10 11 12 11 11 11 14 15 15 16 16 16 16 16 16 16 17 17 18 17 17 17
19 18 16 16 18 19 13 12 11 19 16 11 11 10 11 12 11 10 12 12 12 13 13 13 14 14 12 13 14 14 15 15 14 14 15 16 16 17 17 17 17 17 17 17
17 21 20 22 20 21 12 11 13 11 10 10 10 11 11 12 13 13 13 13 13 14 14 15 15 15 15 14 14 15 15 15 16 16 16 16 16 16 17 17 17 17 17 18
18 13 17 14 15 11 9 10 9 9 9 10 11 11 12 13 13 13 14 14 14 15 15 16 16 16 16 16 15 15 16 16 17 17 17 17 17 17 17 17 18 18 18 19
15 12 14 15 12 10 9 10 10 9 10 10 11 12 13 13 12 13 14 14 15 15 15 16 17 17 17 17 16 17 18 17 17 17 18 18 18 18 18 17 18 18 19 19
13 14 16 15 11 11 10 10 9 9 10 11 12 13 12 13 13 14 14 14 15 15 16 16 17 17 18 19 19 19 19 18 18 18 19 18 18 19 19 19 19 18 18 18
14 13 15 14 11 12 10 11 11 11 11 11 12 13 13 13 13 14 14 15 16 16 17 18 18 18 19 20 20 21 20 19 19 20 20 19 20 20 19 19 19 16 17 16